Retour au catalogue

STARLINK-31313

ActifCommunicationsVLEO
NORAD 59088·PAYLOAD·🇺🇸 United States

Lancé Feb 29, 2024 depuis Cape Canaveral Space Force Station

Loading…

Prochains Passages (prochaines 24 heures)

TLE

FraisSource: CelesTrak SupGP

Époque: Sep 14, 2026, 21:40 UTC

1 59088C 24041Q   26257.90326389 -.00027609  00000+0 -10001-2 0  2579
2 59088  43.0014 322.0025 0001629 267.8442 347.5409 15.27590120    14

Suivez STARLINK-31313 en temps réel avec AllMySat

Download on the App Store